Location: Splawn
(30.9202°N, 96.9858°W)
Time: 00:33:04
(UTC+00:00)

Transit 2A Rocket - Pass Details

Date: 04 March 2020
Orbit: 589 x 914 km, 66.7° (Epoch: 01 April)

Event Time Altitude Azimuth Distance (km) Brightness Sun altitude
Rises 01:50:51 0° 211° (SSW) 2,805 8.3 -18.5°
Reaches altitude 10° 01:53:04 10° 214° (SW) 1,905 7.4 -19.0°
Maximum altitude 01:57:16 65° 296° (WNW) 655 4.8 -19.9°
Drops below altitude 10° 02:01:38 10° 19° (NNE) 1,973 7.0 -20.8°
Enters shadow 02:01:58 - 19° (NNE) 2,104 7.1 -20.9°
Sets 02:03:59 0° 22° (NNE) 2,916 - -21.3°
